Location: Maccacari
(45.1333°N, 11.1333°E)
Time: 08:40:32
(UTC+00:00)

Cosmos 1300 Rocket - Pass Details

Date: 18 September 2020
Orbit: 601 x 627 km, 82.5° (Epoch: 29 October)

Event Time Altitude Azimuth Distance (km) Brightness Sun altitude
Rises 18:15:44 0° 166° (SSE) 2,873 6.7 -10.6°
Reaches altitude 10° 18:18:04 10° 158° (SSE) 1,977 5.8 -11.0°
Maximum altitude 18:22:05 36° 91° (E) 981 4.1 -11.6°
Drops below altitude 10° 18:26:09 10° 25° (NNE) 2,005 6.1 -12.3°
Sets 18:28:31 0° 17° (NNE) 2,920 7.0 -12.7°
